User: anonymous   Login
Location: Caltech
(34.1382°N, 118.1253°W)
Time: 02:27:21
(UTC-08:00)
Language:

Iridium 14 - Orbit

View from above orbital plane
View from above orbital plane
View from above satellite
View from above satellite

Ground track
Ground track

The orbit data is extracted from the following two-line orbital elements,

1 25777U 99032A   17022.26424692  .00000159  00000-0  49641-4 0  9991
2 25777  86.3970 284.9421 0002170  87.2838 272.8606 14.34217891933768
Epoch (UTC): 22 January 2017 06:20:30
Eccentricity: 0.0002170
inclination: 86.3970°
perigee height: 776 km
apogee height: 779 km
right ascension of ascending node: 284.9421°
argument of perigee: 87.2838°
revolutions per day: 14.34217891
mean anomaly at epoch: 272.8606°
orbit number at epoch: 93376

The dashed part of the orbit path shows where the satellite is in the earth's shadow,  

DLR